This is the latest recevied weather packets stored in our database for station/object LZ1NAG-10. If no packets are shown the sender has not sent any weather packets the latest 10 day(s).
| Time | Temp. | Humidity | Pressure | Rain* | Wind** | Luminosity | Snow |
|---|---|---|---|---|---|---|---|
| 1778204051 | 8.33° C | 53% | 1021.3 hPa | - | - | - | - |
| 1778203150 | 8.33° C | 52% | 1021.6 hPa | - | - | - | - |
| 1778202250 | 9.44° C | 52% | 1021.4 hPa | - | - | - | - |
| 1778201350 | 8.89° C | 52% | 1021.4 hPa | - | - | - | - |
| 1778200453 | 8.89° C | 53% | 1021.8 hPa | - | - | - | - |
| 1778199549 | 8.33° C | 53% | 1021.5 hPa | - | - | - | - |
| 1778198649 | 8.33° C | 53% | 1021.6 hPa | - | - | - | - |
| 1778197749 | 8.89° C | 53% | 1021.8 hPa | - | - | - | - |
| 1778196849 | 8.89° C | 53% | 1022 hPa | - | - | - | - |
| 1778195949 | 8.89° C | 53% | 1022 hPa | - | - | - | - |
| 1778195048 | 10° C | 52% | 1021.8 hPa | - | - | - | - |
| 1778194148 | 10.56° C | 53% | 1022.1 hPa | - | - | - | - |
| 1778193248 | 10° C | 53% | 1022.1 hPa | - | - | - | - |
| 1778191447 | 10° C | 53% | 1022.1 hPa | - | - | - | - |
| 1778190547 | 10° C | 52% | 1021.8 hPa | - | - | - | - |
| 1778189647 | 10° C | 53% | 1021.8 hPa | - | - | - | - |
| 1778188747 | 10.56° C | 53% | 1021.7 hPa | - | - | - | - |
| 1778187847 | 11.11° C | 52% | 1021.6 hPa | - | - | - | - |
| 1778186946 | 12.22° C | 52% | 1021.2 hPa | - | - | - | - |
| 1778186046 | 11.67° C | 52% | 1021.6 hPa | - | - | - | - |
| 1778185146 | 11.67° C | 52% | 1021.4 hPa | - | - | - | - |
| 1778184246 | 11.67° C | 53% | 1021.6 hPa | - | - | - | - |
| 1778183346 | 12.22° C | 53% | 1021.5 hPa | - | - | - | - |
| 1778182446 | 12.78° C | 52% | 1021.5 hPa | - | - | - | - |
| 1778181545 | 13.89° C | 52% | 1021.2 hPa | - | - | - | - |
* Rain since midnight (hover to see other rain measurements)
** Current wind speed in m/s (hover to see current wind gust speed)